Location: Grand Mazuras
(45.9128°N, 1.7636°E)
Time: 16:44:19
(UTC+00:00)

IRIDIUM 114 - Pass Details

Date: 18 April 2021
Orbit: 776 x 779 km, 86.4° (Epoch: 12 May)

Event Time Altitude Azimuth Distance (km) Brightness Sun altitude
Exits shadow 20:49:04 18° 189° (S) 1,858 6.0 -19.7°
Maximum altitude 20:53:03 76° 273° (W) 806 4.4 -20.2°
Drops below altitude 10° 20:58:18 10° 1° (N) 2,341 7.4 -20.9°
Sets 21:00:40 0° 3° (N) 3,273 8.2 -21.2°
